Regional Weather Roundup
Issued by NWS

Home | Current Version | Previous Version | Graphics & Text | Print | Product List | Glossary On
Versions: 1 2 3 4 5 6 7 8 9 10 11 12 13 14 15 16 17 18 19 20 21 22 23 24 25 26 27 28 29 30 31 32 33 34 35 36 37 38 39 40 41 42 43 44 45 46 47 48 49 50
000
ASUS44 KMEG 280800
RWRTN
TENNESSEE HOURLY STATE WEATHER ROUNDUP
NATIONAL WEATHER SERVICE MEMPHIS TN
300 AM CDT SAT MAY 28 2016

TNZ002-004-019-021-049-052-054-088>092-280900-
WEST TENNESSEE

CITY           SKY/WX    TMP DP  RH WIND       PRES   REMARKS
MEMPHIS INTL   CLOUDY    70  66  87 CALM      29.91R
NWS MEMPHIS      N/A     67 N/A N/A MISG        N/A
JACKSON        CLOUDY    72  63  73 S5        29.92S
DYERSBURG      CLOUDY    68  64  88 CALM      29.91S
UNION CITY     CLEAR     70  66  88 SE5       29.92R
PARIS          CLEAR     66  63  88 SE5       29.95S
LEXINGTON      CLEAR     73  63  68 S5        29.94S
$$

TNZ008-025-027-028-033-062-065-066-280900-
NORTH MIDDLE TENNESSEE

CITY           SKY/WX    TMP DP  RH WIND       PRES   REMARKS
NASHVILLE      CLOUDY    73  64  73 S7        30.00S
CLARKSVILLE    CLOUDY    69  65  86 SE3       29.97R
COOKEVILLE     CLEAR     72  63  73 S5        30.04R
CROSSVILLE     CLEAR     68  59  73 S5        30.11R
$$

TNZ061-075-076-078-094-096-097-280900-
SOUTH MIDDLE TENNESSEE

CITY           SKY/WX    TMP DP  RH WIND       PRES   REMARKS
TULLAHOMA      CLEAR     68  68 100 S3        30.05R
WINCHESTER     CLEAR     72  63  73 S8        30.04S
COLUMBIA       CLEAR    N/A N/A N/A S6        29.97F
SHELBYVILLE    CLEAR     72  68  88 SE5       30.03R
$$

TNZ017-018-042-046-047-280900-
NORTHEAST TENNESSEE

CITY           SKY/WX    TMP DP  RH WIND       PRES   REMARKS
TRI CITIES     FOG       60  59  96 NW5       30.14R VSB 1/8
$$

TNZ012-013-036-069-073-074-280900-
CENTRAL EAST TENNESSEE

CITY           SKY/WX    TMP DP  RH WIND       PRES   REMARKS
KNOXVILLE      FOG       65  65 100 E3        30.08S VSB 1/4
OAK RIDGE      FOG       67  66  97 CALM      30.10S VSB 1/4
GATLINBURG     CLEAR     61  61 100 CALM      30.09S
$$

TNZ083-085-099-280900-
SOUTHEAST TENNESSEE

CITY           SKY/WX    TMP DP  RH WIND       PRES   REMARKS
CHATTANOOGA    CLEAR     69  61  75 CALM      30.06S
$$

SKY/WX REPORTED AS FAIR MEANS FEW OR NO CLOUDS BELOW
12 THOUSAND FEET.





USA.gov is the U.S. government's official web portal to all federal, state and local government web resources and services.